This demonstration page uses our WeatherBlox Daily Observations layout. Learn more.

Left ArrowRight Arrow

39.12711, -84.51439

Hourly Observations for September 23, 2016

Temp ( °F °C ) Dew Point ( °F °C ) Humidity (%) Winds ( mph kmh ) Pressure ( in mb ) Visibility ( mi km ) Precip ( " mm )
12:53 am 00:53 Clear 66 18.9 66 18.9 100 100 SW 3 6 30.04 1017 7 11 0.00 0.00
1:53 am 01:53 Clear with Mist and Fog 65 18.3 65 18.3 100 100 NNE 3 6 30.05 1018 6 10 0.00 0.00
2:44 am 02:44 Clear with Mist and Fog 64 18 64 18 100 100 Calm 30.03 1017 2 3 0.00 0.00
2:53 am 02:53 Clear with Mist and Fog 63 17.2 63 17.2 100 100 Calm 30.05 1018 4 6 0.00 0.00
3:53 am 03:53 Clear with Mist and Fog 64 17.8 64 17.8 100 100 Calm 30.05 1018 4 6 0.00 0.00
4:12 am 04:12 Clear with Mist and Fog 63 17 63 17 100 100 Calm 30.03 1017 2 3 0.00 0.00
4:19 am 04:19 Clear with Fog 64 17.8 64 17.8 100 100 Calm 30.03 1017 0 0 0.00 0.00
4:26 am 04:26 Clear with Mist and Fog 64 18 64 18 100 100 Calm 30.03 1017 1 2 0.00 0.00
4:44 am 04:44 Clear with Fog 63 17 63 17 100 100 Calm 30.03 1017 1 1 0.00 0.00
4:53 am 04:53 Clear with Fog 62 16.7 62 16.7 100 100 Calm 30.05 1018 1 1 0.00 0.00
5:00 am 05:00 Clear with Mist and Fog 63 17 63 17 100 100 Calm 30.03 1017 2 3 0.00 0.00
5:08 am 05:08 Clear with Mist and Fog 63 17.2 63 17.2 100 100 Calm 30.03 1017 3 5 0.00 0.00
5:11 am 05:11 Clear with Mist and Fog 62 16.7 62 16.7 100 100 Calm 30.03 1017 2 3 0.00 0.00
5:21 am 05:21 Clear with Mist and Fog 63 17.2 63 17.2 100 100 Calm 30.03 1017 3 5 0.00 0.00
5:50 am 05:50 Clear with Mist and Fog 63 17 63 17 100 100 Calm 30.03 1017 2 3 0.00 0.00
5:53 am 05:53 Clear with Mist and Fog 62 16.7 62 16.7 100 100 Calm 30.06 1018 2 3 0.00 0.00
6:05 am 06:05 Clear with Mist and Fog 62 16.7 62 16.7 100 100 Calm 30.03 1017 2 3 0.00 0.00
6:14 am 06:14 Clear with Mist and Fog 63 17 63 17 100 100 Calm 30.03 1017 4 6 0.00 0.00
6:32 am 06:32 Clear with Mist and Fog 63 17 63 17 100 100 Calm 30.03 1017 2 2 0.00 0.00
6:42 am 06:42 Clear with Mist and Fog 63 17 63 17 100 100 Calm 30.06 1018 4 6 0.00 0.00
6:53 am 06:53 Clear with Mist and Fog 61 16.1 61 16.1 100 100 NE 3 6 30.07 1018 4 6 0.00 0.00
7:53 am 07:53 Sunny with Mist and Fog 63 17.2 63 17.2 100 100 ENE 6 9 30.08 1019 4 6 0.00 0.00
8:53 am 08:53 Sunny 66 18.9 66 18.9 100 100 Calm 30.09 1019 7 11 0.00 0.00
9:53 am 09:53 Sunny 71 21.7 68 20 90 90 Calm 30.09 1019 10 16 0.00 0.00
10:53 am 10:53 Sunny 77 25 70 21.1 79 79 S 3 6 30.09 1019 10 16 0.00 0.03
11:53 am 11:53 Sunny 83 28.3 68 20 61 61 Calm 30.09 1019 10 16 0.00 0.00
12:53 pm 12:53 Sunny 86 30 66 18.9 51 51 VRB 5 7 30.08 1019 10 16 0.00 0.00
1:53 pm 13:53 Partly Cloudy 87 30.6 65 18.3 48 48 Calm 30.06 1018 10 16 0.00 0.00
2:53 pm 14:53 Partly Cloudy 87 30.6 62 16.7 43 43 Calm 30.04 1017 10 16 0.00 0.00
3:53 pm 15:53 Partly Cloudy 88 31.1 63 17.2 43 43 undefined N/A 30.02 1017 10 16 0.00 0.00
4:53 pm 16:53 Partly Cloudy 89 31.7 65 18.3 45 45 NW 6 9 30.01 1016 10 16 0.00 0.00
5:53 pm 17:53 Sunny 87 30.6 65 18.3 48 48 WSW 5 7 30.01 1016 10 16 0.00 0.00
6:53 pm 18:53 Sunny 84 28.9 64 17.8 51 51 W 5 7 30.02 1017 10 16 0.00 0.00
7:53 pm 19:53 Clear 74 23.3 70 21.1 88 88 Calm 30.03 1017 10 16 0.00 0.00
8:53 pm 20:53 Clear 71 21.7 68 20 90 90 Calm 30.04 1017 10 16 0.00 0.00
9:53 pm 21:53 Clear 69 20.6 67 19.4 93 93 Calm 30.05 1018 10 16 0.00 0.00
10:53 pm 22:53 Clear 67 19.4 67 19.4 100 100 Calm 30.05 1018 9 14 0.00 0.00
11:53 pm 23:53 Clear with Mist and Fog 67 19.4 67 19.4 100 100 Calm 30.06 1018 6 10 0.00 0.00

Powered by AerisWeather